Location: L�Adrech
(44.2500°N, 6.4167°E)
Time: 22:45:28
(UTC+00:00)

Cosmos 2360 Rocket - Pass Details

Date: 07 June 2020
Orbit: 832 x 846 km, 71.0° (Epoch: 11 July)

Event Time Altitude Azimuth Distance (km) Brightness Sun altitude
Exits shadow 02:25:24 16° 207° (SSW) 2,052 3.6 -12.3°
Maximum altitude 02:29:59 84° 295° (WNW) 846 2.2 -11.7°
Drops below altitude 10° 02:35:39 10° 24° (NNE) 2,462 5.9 -11.1°
Sets 02:38:06 0° 25° (NNE) 3,403 7.0 -10.8°
